SL-16 R/B (22803 NORAD) Tracking and Keplerian Element Data

This shows tracking and keplerian element data for the satellite.

Feedback or suggestion? Click here.




ElementValue
Catalog22803
NameSL-16 R/B
Epoch Orbit62330
Epoch Day34.96341628
Epoch Year2025
RAAN131.9072
Inclination70.9907
Eccentricity0.0014815
Argument of Perigee99.0476
Mean Anonmoly261.2325
Mean Motion14.17136356
Decay Rate2E-07
L11 22803U 93059B 25034.96341628 .00000020 00000+0 33490-4 0 9998
L22 22803 70.9907 131.9072 0014815 99.0476 261.2325 14.17136356623308



Live tracking and technical data element details for SL-16 R/B (NORAD 22803). SL-16 R/B can be tracked NOW for your location showing map with azimuth and elevation plus other details from your city location.







IsCatalogInMostPopularTable: catalog: 22803, numindb: 370
Update: records affected: 1



GetName: 22803 SL-16 R/B

Hit Count: updated at: Thu, 15 May 2025 19:46:23 GMT